Probability
3 6 19 29 32 32 39 39 45 45 52 55 55 55 55 58 58 61 55 55 52 52 52 52 52 45 42 42 42 45 45 39 39 42 48 45 45 48 42 42 45 48 58
3 10 26 32 39 35 35 39 35 39 42 45 48 48 48 55 55 52 52 52 48 48 45 45 48 48 48 45 39 45 52 42 48 39 35 42 42 45 45 39 42 52 52
6 16 19 32 32 35 35 39 39 39 48 42 45 48 48 48 52 55 52 48 48 48 42 42 42 39 39 29 29 42 35 29 32 32 39 42 32 29 29 29 42 42 45
6 10 16 35 35 39 39 35 39 48 45 45 48 48 55 48 45 48 45 42 42 42 42 39 35 42 39 32 26 32 23 23 19 23 10 13 13 19 19 26 29 19 32
6 10 23 35 32 32 35 35 35 45 48 45 48 42 42 35 42 45 42 42 39 42 39 35 35 29 23 23 23 23 19 16 13 3 3 16 32 23 19 19 26 29 13
13 13 23 35 39 32 35 35 35 35 45 42 45 42 39 35 32 35 32 35 35 26 29 26 29 26 26 19 19 19 16 19 10 6 6 23 23 19 13 16 16 16 26
10 13 13 39 42 42 35 42 45 45 45 39 39 32 29 35 35 26 26 29 26 23 26 29 26 29 29 26 23 16 13 13 6 13 13 10 19 16 16 19 29 16 19
10 13 19 32 42 42 42 48 45 39 42 39 32 32 29 32 32 32 29 26 26 23 23 26 26 26 16 16 13 13 10 6 3 6 10 10 16 13 16 26 29 29 19
0 6 10 16 19 29 42 45 45 32 35 32 29 29 26 23 23 16 16 16 23 16 19 19 19 16 19 16 10 10 10 6 3 10 6 16 23 16 19 19 23 26 26
0 0 3 10 13 16 19 29 32 32 32 29 29 29 23 23 16 13 13 23 19 19 16 10 10 16 16 6 3 6 3 3 3 0 13 10 16 23 16 19 26 23 29
3 6 0 0 6 6 10 6 23 26 29 19 19 19 16 10 10 10 6 19 13 13 10 13 10 10 10 3 3 3 3 6 3 3 6 10 16 19 26 19 26 23 23
0 0 0 0 0 0 3 10 13 13 16 13 13 6 10 10 10 6 0 13 6 6 10 10 13 6 3 6 0 0 6 3 3 3 3 13 13 23 26 23 23 23 26
0 0 0 0 0 0 6 10 10 13 16 10 6 10 13 10 10 10 10 6 6 3 3 6 6 10 6 6 3 3 3 3 3 3 3 10 16 19 19 13 6 6 10
0 0 0 0 0 0 3 6 13 10 13 16 10 10 13 16 13 13 16 10 10 10 10 6 10 3 3 3 3 3 3 3 3 3 3 6 10 19 13 6 3 6 13
0 0 0 0 0 0 3 3 3 6 6 6 16 13 6 10 10 10 10 10 6 6 6 6 10 6 6 3 3 0 0 0 0 0 6 0 13 13 10 3 3 6 10
3 0 0 0 0 3 6 3 3 3 6 0 6 13 6 6 10 6 10 10 6 6 6 6 6 3 3 6 0 0 0 0 0 0 0 3 3 10 6 6 3 6 10
3 3 0 3 3 6 6 3 3 3 3 3 3 0 0 0 3 6 6 10 10 6 6 6 6 3 3 0 0 0 0 0 0 0 0 0 0 0 3 6 6 3 3
6 3 3 0 3 3 6 6 6 10 10 6 6 6 6 6 6 6 10 10 10 6 6 6 3 3 3 0 0 0 0 0 0 0 0 0 0 0 0 0 6 3 3
6 6 6 3 0 3 0 6 6 6 6 6 6 6 10 6 6 10 10 10 6 6 6 3 3 3 3 3 0 0 0 0 0 0 0 0 0 0 0 0 0 3 3
3 6 6 6 3 6 0 3 3 3 3 3 6 10 10 10 10 10 10 6 3 10 6 3 3 3 3 3 0 0 0 0 0 0 0 0 0 0 0 0 0 0 0
3 0 0 3 3 3 0 6 3 6 3 6 10 6 3 3 3 10 10 10 10 10 10 3 3 3 3 3 3 0 0 0 0 0 0 0 0 0 0 0 0 0 0
3 3 0 3 3 3 3 3 0 6 6 6 13 6 6 3 3 3 10 10 10 10 6 3 3 3 3 3 3 3 0 0 0 0 0 0 0 0 0 0 0 0 0
13 6 0 0 3 3 3 3 3 3 6 10 6 6 3 3 3 6 6 6 6 6 3 3 3 3 3 3 3 3 0 0 0 0 0 0 0 0 0 0 0 0 0
13 10 3 0 0 3 3 6 10 3 6 3 3 0 0 0 0 0 3 0 3 0 3 0 3 3 3 3 3 3 3 0 0 0 0 0 0 0 0 0 0 0 0
10 13 10 3 6 3 6 13 13 10 6 3 0 0 0 0 0 3 3 3 3 3 0 0 0 0 3 3 6 3 3 0 0 0 0 0 0 0 0 0 0 0 0
10 10 10 10 10 6 10 10 13 13 13 6 0 0 0 0 0 0 3 3 3 0 0 0 0 0 3 0 0 3 3 3 3 6 3 0 0 0 0 0 0 0 0
Height
5879 5879 5879 5879 5879 5879 5878 5879 5879 5878 5878 5878 5878 5878 5877 5877 5876 5875 5876 5876 5876 5876 5876 5876 5876 5876 5876 5876 5877 5877 5877 5877 5877 5877 5877 5877 5877 5877 5877 5877 5877 5877 5877
5879 5879 5879 5879 5879 5879 5879 5879 5879 5879 5879 5878 5878 5878 5877 5876 5876 5874 5875 5875 5875 5875 5874 5874 5875 5875 5876 5876 5876 5876 5876 5877 5877 5877 5876 5876 5876 5876 5876 5876 5876 5876 5876
5879 5878 5878 5879 5879 5879 5879 5879 5878 5878 5878 5878 5878 5878 5877 5876 5876 5876 5876 5876 5875 5875 5874 5874 5875 5875 5875 5875 5876 5876 5876 5876 5876 5876 5876 5876 5876 5875 5875 5875 5875 5875 5875
5878 5878 5878 5879 5879 5879 5879 5879 5879 5878 5878 5878 5878 5878 5877 5877 5876 5876 5876 5876 5876 5875 5875 5875 5875 5875 5875 5875 5875 5875 5875 5875 5876 5876 5876 5875 5875 5875 5874 5874 5874 5874 5874
5878 5878 5878 5878 5879 5879 5879 5879 5879 5878 5878 5878 5878 5878 5877 5877 5876 5876 5876 5876 5876 5875 5875 5875 5875 5875 5875 5875 5875 5875 5875 5875 5875 5875 5875 5874 5874 5874 5873 5873 5873 5872 5872
5878 5878 5878 5878 5878 5879 5878 5878 5878 5878 5878 5878 5877 5877 5877 5877 5876 5876 5876 5876 5875 5875 5875 5875 5875 5875 5875 5874 5874 5874 5874 5874 5874 5874 5873 5873 5873 5872 5872 5871 5871 5871 5871
5877 5877 5877 5878 5878 5878 5878 5878 5878 5878 5877 5877 5877 5877 5876 5876 5876 5875 5875 5875 5875 5875 5875 5875 5875 5874 5874 5874 5874 5873 5873 5873 5872 5872 5872 5872 5871 5871 5871 5870 5870 5870 5869
5876 5876 5877 5877 5877 5878 5878 5877 5877 5877 5877 5876 5876 5876 5876 5876 5875 5875 5875 5875 5875 5874 5874 5874 5874 5874 5873 5873 5873 5872 5872 5872 5871 5871 5871 5870 5870 5869 5869 5868 5868 5868 5867
5875 5875 5876 5876 5876 5877 5877 5877 5876 5876 5876 5876 5875 5875 5875 5875 5875 5875 5874 5874 5874 5874 5874 5874 5873 5873 5873 5872 5872 5871 5871 5870 5870 5869 5869 5869 5868 5868 5867 5867 5866 5865 5865
5874 5874 5874 5875 5875 5875 5875 5875 5875 5875 5875 5874 5874 5874 5874 5874 5874 5873 5873 5873 5873 5873 5873 5872 5872 5872 5871 5871 5870 5870 5869 5869 5868 5868 5867 5867 5866 5866 5865 5865 5864 5864 5863
5872 5872 5873 5873 5873 5874 5874 5874 5874 5874 5874 5873 5873 5873 5873 5873 5872 5872 5872 5872 5872 5872 5872 5871 5871 5871 5870 5869 5869 5869 5868 5867 5867 5866 5865 5865 5864 5864 5863 5863 5862 5861 5860
5871 5871 5872 5872 5872 5872 5872 5872 5872 5872 5872 5872 5872 5872 5871 5871 5871 5871 5871 5871 5871 5870 5870 5870 5869 5869 5868 5868 5867 5867 5866 5866 5865 5864 5863 5863 5863 5862 5861 5861 5860 5859 5858
5869 5870 5870 5870 5870 5871 5871 5871 5871 5870 5870 5870 5870 5870 5870 5870 5869 5869 5869 5869 5869 5869 5868 5868 5868 5867 5867 5866 5865 5865 5864 5864 5863 5863 5862 5861 5861 5860 5859 5859 5858 5856 5855
5868 5868 5868 5868 5868 5869 5869 5869 5869 5869 5869 5869 5868 5868 5868 5868 5868 5867 5867 5867 5867 5867 5866 5866 5866 5865 5865 5864 5864 5863 5863 5862 5862 5861 5860 5860 5859 5858 5857 5856 5855 5854 5853
5866 5866 5866 5867 5867 5867 5867 5867 5867 5867 5867 5867 5867 5866 5866 5866 5866 5866 5866 5865 5865 5865 5864 5864 5864 5863 5863 5862 5862 5861 5861 5860 5860 5859 5858 5858 5857 5856 5855 5855 5853 5852 5851
5864 5864 5864 5864 5864 5865 5865 5865 5865 5865 5865 5864 5864 5864 5864 5864 5864 5864 5864 5863 5863 5863 5862 5862 5862 5861 5861 5860 5860 5859 5859 5859 5858 5857 5857 5856 5855 5854 5853 5852 5851 5850 5849
5862 5862 5862 5862 5862 5862 5862 5862 5862 5862 5862 5862 5862 5862 5862 5862 5862 5862 5862 5861 5861 5861 5860 5860 5860 5859 5859 5858 5858 5858 5857 5856 5856 5855 5855 5854 5853 5852 5851 5850 5849 5848 5846
5860 5860 5860 5860 5860 5860 5860 5860 5860 5860 5860 5860 5860 5860 5860 5860 5860 5860 5859 5859 5859 5858 5858 5858 5857 5857 5857 5856 5856 5855 5855 5854 5854 5853 5852 5852 5851 5850 5849 5847 5846 5845 5843
5857 5857 5857 5857 5857 5857 5857 5857 5857 5857 5857 5858 5858 5858 5858 5858 5858 5857 5857 5857 5856 5856 5856 5856 5855 5855 5854 5854 5853 5853 5853 5852 5851 5851 5850 5849 5848 5847 5846 5845 5844 5842 5841
5854 5854 5854 5854 5854 5854 5854 5854 5854 5854 5855 5855 5855 5855 5855 5855 5855 5855 5855 5855 5854 5854 5854 5853 5853 5852 5852 5851 5851 5850 5850 5849 5848 5848 5847 5846 5845 5844 5843 5842 5840 5839 5838
5851 5851 5851 5851 5851 5851 5851 5851 5851 5852 5852 5852 5852 5852 5852 5852 5852 5852 5852 5852 5852 5851 5851 5851 5850 5850 5849 5849 5848 5847 5847 5846 5845 5845 5844 5843 5842 5841 5839 5838 5837 5836 5834
5847 5848 5847 5848 5848 5848 5848 5848 5848 5848 5849 5849 5849 5849 5849 5849 5849 5849 5849 5849 5849 5848 5848 5848 5847 5847 5846 5846 5845 5845 5844 5844 5842 5842 5840 5839 5838 5837 5836 5835 5834 5832 5831
5844 5844 5844 5844 5844 5844 5844 5845 5845 5845 5845 5845 5845 5845 5845 5845 5845 5846 5846 5846 5845 5845 5845 5845 5844 5844 5843 5843 5842 5842 5841 5840 5839 5839 5837 5836 5835 5834 5833 5832 5830 5829 5828
5840 5840 5840 5840 5840 5840 5841 5841 5841 5842 5842 5841 5842 5841 5842 5842 5842 5842 5842 5842 5842 5842 5841 5841 5841 5840 5840 5840 5839 5838 5837 5836 5836 5835 5834 5832 5831 5830 5829 5828 5827 5825 5824
5835 5835 5835 5835 5836 5836 5836 5836 5837 5837 5837 5837 5837 5838 5838 5838 5838 5838 5838 5838 5838 5838 5838 5837 5837 5837 5836 5836 5835 5835 5833 5832 5831 5831 5830 5828 5827 5826 5825 5824 5823 5821 5820
5830 5830 5830 5830 5831 5831 5831 5831 5832 5832 5832 5832 5833 5833 5833 5834 5834 5834 5834 5834 5834 5834 5834 5833 5833 5832 5832 5832 5831 5830 5829 5828 5827 5826 5825 5824 5823 5822 5820 5819 5818 5817 5815
Wind_Speed
3 4 4 4 2 2 2 3 3 3 2 2 2 2 2 2 2 3 3 3 3 3 3 4 4 4 4 5 5 4 4 3 3 3 3 3 4 4 5 6 6 6 6
4 4 3 4 3 2 2 2 3 2 2 2 2 2 2 2 2 3 3 3 2 2 3 4 4 5 4 5 5 5 5 4 4 3 4 4 4 5 5 6 6 7 7
4 4 3 4 3 2 2 2 2 2 2 2 2 2 2 2 2 2 3 2 2 1 2 3 4 4 4 5 6 6 6 5 5 5 5 4 5 5 6 6 7 7 8
4 4 3 3 3 3 2 2 1 1 2 1 1 1 2 2 2 2 2 2 2 2 1 2 3 3 4 5 6 6 6 6 5 6 5 5 5 6 6 6 7 8 7
4 4 4 3 3 3 2 2 2 2 2 2 2 2 2 2 2 2 2 2 2 1 1 1 1 2 3 4 4 5 5 6 6 6 6 6 6 6 7 7 7 7 7
4 4 4 4 4 3 3 3 3 2 2 3 3 2 2 2 3 3 3 3 3 2 1 1 1 2 2 2 3 4 5 5 6 7 7 7 7 7 7 7 7 8 9
5 5 5 5 5 4 4 4 3 3 3 3 3 4 4 4 4 4 4 3 3 3 2 2 2 2 3 3 4 4 4 5 6 6 7 7 8 8 9 9 9 9 10
6 6 6 6 5 6 5 5 5 5 5 5 4 5 5 4 5 4 5 4 4 4 4 3 3 3 4 5 5 5 5 6 6 7 7 8 9 9 9 9 9 10 11
7 7 7 7 7 7 7 7 6 6 6 6 5 5 6 5 5 6 6 6 6 5 5 5 4 5 5 6 6 6 7 7 7 8 8 9 9 10 10 11 10 11 11
8 8 8 8 8 8 8 8 8 7 7 6 6 6 6 6 6 6 7 8 8 7 7 6 6 6 7 7 7 8 8 8 8 9 9 9 9 10 10 11 11 11 12
9 9 9 9 9 8 8 8 8 8 8 8 8 8 7 7 7 7 8 8 8 8 8 8 8 8 8 8 8 8 8 8 9 9 9 9 9 10 10 11 11 12 12
9 9 9 10 10 9 9 9 9 9 9 9 9 9 9 9 9 9 8 9 9 9 9 9 9 10 9 9 8 8 8 8 9 8 9 9 9 10 11 11 12 12 12
9 10 10 10 10 9 9 9 9 9 9 9 9 10 10 10 10 10 10 10 10 9 9 9 10 10 9 9 9 9 9 8 8 8 9 10 10 11 11 12 12 12 12
10 10 10 10 11 10 10 10 10 10 9 9 10 10 10 10 10 10 10 10 10 10 10 9 10 10 9 9 9 8 9 9 9 9 9 9 10 11 11 11 12 12 12
9 10 10 11 11 11 11 10 10 10 9 10 10 10 10 10 10 10 9 9 10 9 9 10 10 10 9 9 9 8 9 9 9 9 9 9 9 10 11 11 11 12 12
10 10 10 11 11 11 11 11 11 11 10 11 11 11 11 10 9 9 9 10 9 9 10 10 10 9 9 9 9 9 9 9 9 10 10 10 10 11 11 11 11 12 12
11 11 12 12 12 12 12 12 12 12 12 11 11 11 10 9 9 10 9 9 10 10 9 10 10 10 9 9 9 9 9 9 10 10 11 11 11 11 11 12 12 11 11
13 13 13 13 13 13 14 13 14 13 13 12 12 11 11 11 10 10 9 10 10 10 9 9 9 10 10 10 10 9 9 10 10 11 11 11 12 12 12 12 12 12 11
13 13 13 13 13 14 14 14 14 13 13 13 12 12 12 11 11 10 10 10 10 9 10 10 9 10 11 11 11 11 11 11 11 11 12 12 12 13 13 13 13 14 14
14 14 14 14 14 14 14 14 14 13 13 13 13 13 13 13 12 11 11 10 10 10 11 11 11 11 11 11 11 12 12 12 12 12 12 13 14 14 14 15 14 14 15
14 14 14 14 14 14 14 14 14 14 14 14 14 14 14 13 13 12 11 11 11 11 12 12 12 12 12 12 12 12 12 13 13 13 14 14 14 14 15 15 15 14 14
16 16 15 15 15 15 15 14 14 14 14 14 15 14 14 14 13 13 12 12 12 12 12 13 13 13 13 13 13 13 13 13 14 14 14 15 14 15 15 15 14 14 15
17 17 17 17 17 17 16 16 15 15 14 14 14 14 14 14 14 14 13 13 13 13 13 13 14 13 13 13 14 14 14 14 15 15 15 15 15 15 15 15 15 15 15
18 18 18 18 18 18 18 17 17 17 16 16 16 16 15 15 15 15 14 14 15 15 14 14 14 14 14 14 14 15 15 16 16 16 16 15 15 15 15 15 16 16 16
19 18 19 19 19 19 19 19 19 19 19 18 18 17 17 16 16 15 16 16 16 16 16 15 15 15 15 15 16 16 16 16 17 17 16 16 16 16 16 16 16 17 16
20 20 20 20 20 20 20 20 20 20 20 19 19 18 18 18 18 17 17 17 17 17 17 17 17 16 17 17 17 17 17 17 17 17 16 16 17 16 16 16 16 16 16
Wind_Direction
156 151 150 157 160 147 155 164 165 165 171 173 182 184 170 188 219 216 208 210 214 225 233 231 235 227 225 225 222 216 223 237 239 243 238 225 227 232 235 241 239 241 245
169 162 165 171 172 170 177 178 182 177 180 188 197 199 192 194 186 181 189 200 222 237 229 220 228 230 230 227 228 226 229 237 249 252 244 243 247 244 244 245 248 246 246
173 169 172 172 176 173 183 189 185 184 183 189 195 211 223 210 199 191 189 200 210 210 211 216 223 228 229 231 237 234 232 240 246 250 247 248 253 256 254 252 258 258 258
182 179 174 173 179 181 184 184 188 196 191 183 187 197 217 226 209 203 198 199 196 197 213 243 235 235 233 237 241 237 239 248 251 252 247 253 257 259 263 261 264 263 259
196 189 186 187 187 197 198 199 211 232 232 216 209 197 202 212 212 211 208 200 191 200 242 260 228 232 239 243 241 241 246 253 252 253 252 256 257 257 261 261 261 262 261
207 204 199 201 205 217 221 226 222 231 235 230 227 225 219 217 209 209 219 215 211 216 247 246 237 252 248 244 249 250 251 250 251 254 253 256 257 260 264 264 263 266 266
215 216 211 212 217 224 233 238 238 244 245 242 242 235 227 224 221 221 232 231 235 240 247 261 267 252 253 261 264 257 257 260 260 259 261 262 263 266 270 268 269 271 272
219 221 221 223 230 236 240 246 251 255 251 247 241 239 240 237 231 231 237 241 246 255 256 264 264 257 258 268 272 274 268 262 263 260 263 268 270 270 273 270 271 272 273
226 227 230 233 238 242 244 248 249 252 253 247 239 240 243 240 234 234 237 242 248 256 260 263 265 263 262 268 273 278 276 270 269 267 266 266 268 271 273 273 275 277 274
233 235 238 239 242 246 248 249 252 253 253 248 244 245 245 245 245 243 244 247 248 255 261 261 263 266 268 270 273 277 277 276 272 270 271 267 266 268 269 271 272 276 274
239 238 239 241 243 246 248 250 252 254 255 253 250 249 249 249 249 252 252 249 252 257 260 260 263 267 271 271 271 272 274 275 274 273 271 269 268 267 268 274 277 279 278
241 243 245 247 247 247 248 250 252 252 254 254 252 252 251 251 253 254 255 253 256 261 263 263 266 267 272 273 272 273 274 274 274 271 268 267 267 270 272 276 280 282 284
243 245 246 249 250 250 252 252 251 251 253 253 253 253 255 255 255 254 256 259 260 260 264 268 268 269 272 273 271 271 273 273 271 272 271 269 270 271 277 280 280 283 286
245 247 249 252 254 252 253 255 253 252 254 256 257 257 261 262 261 258 259 261 261 261 263 266 267 267 271 272 273 272 274 272 272 273 274 273 273 275 278 280 281 285 288
248 250 252 254 254 255 256 258 257 256 259 258 259 260 263 266 267 264 263 264 263 262 263 264 264 266 270 271 271 270 270 272 275 275 275 276 278 280 280 281 286 289 289
254 257 259 258 256 255 256 259 260 261 263 262 260 258 260 262 263 266 265 264 264 263 264 265 266 267 270 271 268 265 267 272 275 276 276 278 283 285 286 287 288 286 286
257 258 260 261 260 259 257 258 260 263 264 264 261 258 257 259 262 266 267 268 267 265 265 264 266 269 270 269 267 266 268 271 275 277 277 281 283 284 286 288 289 286 282
261 260 259 260 261 260 260 258 259 261 262 260 257 256 257 261 265 265 268 271 269 264 264 266 267 268 268 265 265 268 271 273 276 279 281 282 283 284 286 288 289 288 287
262 261 260 259 259 261 262 260 259 258 258 258 257 257 257 261 264 261 264 269 268 268 267 269 273 273 268 264 264 269 273 275 277 280 281 283 283 284 284 285 286 285 286
263 262 261 260 261 262 263 262 259 256 257 258 258 258 258 260 264 262 266 267 266 268 269 270 273 271 268 267 267 271 274 276 277 278 280 281 282 284 285 285 285 287 287
261 261 261 261 260 261 260 261 261 259 259 259 258 258 259 260 263 261 264 266 268 271 272 272 271 271 271 271 272 273 275 276 277 278 279 281 283 286 287 287 288 287 286
263 262 261 261 260 259 258 259 260 259 260 262 261 258 256 257 258 257 259 264 268 272 273 272 270 272 272 271 272 275 276 276 277 279 280 281 284 286 287 287 288 287 286
263 262 260 259 259 259 258 259 259 260 261 263 261 258 254 251 253 259 260 263 267 269 272 273 270 270 270 271 273 277 279 279 281 282 282 282 284 285 286 287 287 288 288
263 262 260 260 260 259 259 258 257 259 260 260 259 259 257 254 254 258 262 265 267 269 271 272 269 270 269 268 272 276 278 280 282 284 285 283 284 285 285 286 287 287 289
263 262 262 262 260 259 260 259 258 259 257 257 258 259 259 257 255 259 262 263 265 267 270 271 269 269 268 269 271 275 276 278 279 281 282 282 283 284 284 285 285 287 289
263 262 262 261 261 260 259 258 257 258 258 257 259 258 258 259 260 262 263 263 263 266 269 271 272 271 270 268 270 273 275 275 276 278 280 280 282 283 283 285 285 286 286